SCP
0 0 0 0 0 0 0 0 0 0 0 0 0 0 0 0 0 0 0 0 0 0 0 0 0 0 0 1 1 1 1 1 0 0 0 0 0 0 0 0 0 0 0 0
0 0 0 0 0 0 0 0 0 0 0 0 0 0 0 0 0 0 0 0 0 0 0 0 0 0 1 1 1 1 1 1 0 0 0 0 0 0 0 0 0 0 0 0
0 0 0 0 0 0 0 0 0 0 0 0 0 0 0 0 0 0 0 0 0 0 0 0 0 1 1 1 1 1 1 0 0 0 0 0 0 0 0 0 0 0 0 0
0 0 0 0 0 0 0 0 0 0 0 0 0 0 0 0 0 0 0 0 0 0 0 0 0 1 1 1 1 1 0 0 0 0 0 0 0 0 0 0 0 0 0 0
0 0 0 0 0 0 0 0 0 0 0 0 0 0 0 0 0 0 0 0 0 0 0 0 0 0 1 1 0 0 0 0 0 0 0 0 0 0 0 0 0 0 0 0
0 0 0 0 0 0 0 0 0 0 0 0 0 0 0 0 0 0 0 0 0 0 0 0 0 0 0 0 0 0 0 0 0 0 0 0 0 0 0 0 0 0 0 0
0 0 0 0 0 0 0 0 0 0 0 0 0 0 0 0 0 0 0 0 0 0 0 0 0 0 0 0 0 0 0 0 0 0 0 0 0 0 0 0 0 0 0 0
0 0 0 0 0 0 0 0 0 0 0 0 0 0 0 0 0 0 0 0 0 0 0 0 0 0 0 0 0 0 0 0 0 0 0 0 0 0 0 0 0 0 0 0
0 0 0 0 0 0 0 0 0 0 0 0 0 0 0 0 0 0 0 0 0 0 0 0 0 0 0 0 0 0 0 0 0 0 0 0 0 0 0 0 0 0 0 0
0 0 0 0 0 0 0 0 0 0 0 0 0 0 0 0 0 0 0 0 0 0 0 0 0 0 0 0 0 0 0 0 0 0 0 0 0 0 0 0 0 0 0 0
0 0 0 0 0 0 0 0 0 0 0 0 0 0 0 0 0 0 0 0 0 0 0 0 0 0 0 0 0 0 0 0 0 0 0 0 0 0 0 0 0 0 0 0
0 0 0 0 0 0 0 0 0 0 0 0 0 0 0 0 0 0 0 0 0 0 0 0 0 0 0 0 0 0 0 0 0 0 0 0 0 0 0 0 0 0 0 0
0 0 0 0 0 0 0 0 0 0 0 0 0 0 0 0 0 0 0 0 0 0 0 0 0 0 0 0 0 0 0 0 0 0 0 0 0 0 0 0 0 0 0 0
0 0 0 0 0 0 0 0 0 0 0 0 0 0 0 0 0 0 0 0 0 0 0 0 0 0 0 0 0 0 0 0 0 0 0 0 0 0 0 0 0 0 0 0
0 0 0 0 0 0 0 0 0 0 0 0 0 0 0 0 0 0 0 0 0 0 0 0 0 0 0 0 0 0 0 0 0 0 0 0 0 0 0 0 0 0 0 0
0 0 0 0 0 0 0 0 0 0 0 0 0 0 0 0 0 0 0 0 0 0 0 0 0 0 0 0 0 0 0 0 0 0 0 0 0 0 0 0 0 0 0 0
0 0 0 0 0 0 0 0 0 0 0 0 0 0 0 0 0 0 0 0 0 0 0 0 0 0 0 0 0 0 0 0 0 0 0 0 0 0 0 0 0 0 0 0
0 0 0 0 0 0 0 0 0 0 0 0 0 0 0 0 0 0 0 0 0 0 0 0 0 0 0 0 0 0 0 0 0 0 0 0 0 0 0 0 0 0 0 0
0 0 0 0 0 0 0 0 0 0 0 0 0 0 0 0 0 0 0 0 0 0 0 0 0 0 0 0 0 0 0 0 0 0 0 0 0 0 0 0 0 0 0 0
0 0 0 0 0 0 0 0 0 0 0 0 0 0 0 0 0 0 0 0 0 0 0 0 0 0 0 0 0 0 0 0 0 0 0 0 0 0 0 0 0 0 0 0
0 0 0 0 0 0 0 0 0 0 0 0 0 0 0 0 0 0 0 0 0 0 0 0 0 0 0 0 0 0 0 0 0 0 0 0 0 0 0 0 0 0 0 0
0 0 0 0 0 0 0 0 0 0 0 0 0 0 0 0 0 0 0 0 0 0 0 0 0 0 0 0 0 0 0 0 0 0 0 0 0 0 0 0 0 0 0 0
0 0 0 0 0 0 0 0 0 0 0 0 0 0 0 0 0 0 0 0 0 0 0 0 0 0 0 0 0 0 0 0 0 0 0 0 0 0 0 0 0 0 0 0
0 0 0 0 0 0 0 0 0 0 0 0 0 0 0 0 0 0 0 0 0 0 0 0 0 0 0 0 0 0 0 0 0 0 0 0 0 0 0 0 0 0 0 0
0 0 0 0 0 0 0 0 0 0 0 0 0 0 0 0 0 0 0 0 0 0 0 0 0 0 0 0 0 0 0 0 0 0 0 0 0 0 0 0 0 0 0 0
0 0 0 0 0 0 0 0 0 0 0 0 0 0 0 0 0 0 0 0 0 0 0 0 0 0 0 0 0 0 0 0 0 0 0 0 0 0 0 0 0 0 0 0
0 0 0 0 0 0 0 0 0 0 0 0 0 0 0 0 0 0 0 0 0 0 0 0 0 0 0 0 0 0 0 0 0 0 0 0 0 0 0 0 0 0 0 0
Wind_Speed
3 2 4 5 7 9 9 9 9 9 10 11 7 5 5 4 3 3 3 3 3 4 4 4 4 3 3 2 2 2 1 2 2 2 1 1 1 1 1 0 0 1 1 1
2 3 4 6 8 11 11 10 10 8 12 9 5 3 3 4 3 3 4 4 4 4 4 4 4 4 3 2 2 1 1 1 1 1 1 1 1 1 1 1 0 0 1 1
3 1 0 9 12 12 9 9 9 13 13 4 3 4 5 5 4 4 5 5 4 4 4 4 4 3 2 2 1 1 1 1 1 1 2 1 1 1 1 1 1 1 1 1
2 3 8 9 4 9 10 9 9 9 7 6 7 6 5 4 4 4 4 4 4 4 3 3 2 2 1 1 2 2 2 2 2 1 2 2 2 2 2 2 1 1 1 1
4 5 7 7 3 6 8 9 10 11 10 7 3 1 4 4 4 4 4 3 3 3 2 2 1 2 2 3 3 3 3 2 2 1 1 2 2 2 2 1 2 1 1 1
4 5 8 6 3 3 4 7 6 9 9 7 3 2 6 4 3 3 2 1 1 1 1 2 2 2 3 2 3 2 2 2 2 2 1 1 2 2 2 1 2 2 2 1
6 5 8 5 1 5 5 8 3 5 7 6 6 7 5 2 2 2 1 0 1 2 1 1 2 2 3 3 2 2 2 3 3 3 2 1 2 2 1 1 2 2 2 2
5 6 8 1 4 6 6 2 1 1 3 4 4 3 2 1 1 0 0 1 1 1 1 1 1 2 2 2 2 2 2 3 3 3 3 3 2 2 2 1 2 2 2 3
7 7 3 2 3 4 1 1 1 0 1 2 2 2 2 1 1 0 0 0 1 1 1 2 1 2 1 2 2 2 3 3 3 3 3 3 2 2 2 2 1 2 1 2
4 6 5 5 4 3 2 1 1 1 0 1 2 2 1 1 0 0 1 0 1 1 1 1 1 1 1 1 1 2 2 2 2 2 3 3 2 2 2 2 2 2 2 2
6 6 5 4 3 3 2 2 2 1 1 1 2 1 1 1 0 0 0 1 1 1 0 1 1 1 2 2 2 2 2 2 2 2 2 2 2 2 2 2 2 3 3 2
7 6 4 6 5 3 2 2 1 0 1 1 1 2 1 1 1 0 0 1 1 1 1 1 1 1 2 2 1 1 2 2 2 2 2 2 2 3 5 5 7 7 7 6
6 4 4 4 4 3 2 2 1 1 1 1 1 1 1 1 1 0 1 1 0 0 1 1 1 1 2 2 1 1 1 2 2 2 2 2 2 3 4 6 6 6 7 7
2 0 2 4 3 2 1 1 1 0 0 0 0 0 0 0 1 1 0 1 1 1 1 1 1 2 2 2 1 1 1 2 2 2 2 2 3 3 3 4 5 5 6 7
3 2 3 3 1 1 0 0 1 1 1 2 1 1 1 1 0 1 1 1 1 1 1 1 1 2 2 2 1 1 1 1 1 1 2 2 2 3 3 3 4 4 4 5
2 1 1 1 1 1 0 0 1 1 0 0 1 1 0 0 0 1 1 1 1 1 1 1 2 3 2 2 2 1 1 4 4 2 2 2 2 3 3 3 3 4 4 4
1 1 1 1 2 2 1 2 2 2 1 1 1 0 1 1 1 1 2 2 1 1 1 2 3 3 2 2 1 1 1 2 5 3 2 2 2 3 3 3 4 4 4 5
2 3 2 3 2 1 1 1 1 1 1 1 1 1 1 1 1 1 2 2 1 2 2 2 2 2 2 2 2 1 1 1 2 2 2 2 3 3 3 3 4 5 4 5
1 1 1 1 1 1 0 0 0 1 0 1 1 1 0 0 0 1 1 1 1 2 3 3 4 3 2 3 3 1 1 2 2 2 2 4 4 3 3 3 4 4 4 4
1 1 1 1 2 1 1 1 1 1 1 1 1 1 1 1 1 1 1 1 2 2 3 3 3 2 2 2 4 1 1 2 2 2 2 2 3 3 3 4 4 4 4 4
2 2 2 2 2 2 1 1 1 1 1 1 1 0 1 2 2 1 1 2 3 3 2 4 2 2 2 2 3 1 1 2 2 2 2 3 3 4 4 4 4 4 4 4
2 2 2 2 3 2 2 2 2 2 2 2 2 1 1 2 2 2 2 2 3 5 3 2 2 3 4 4 1 1 2 2 2 2 2 3 3 4 4 4 4 5 5 4
1 2 2 3 2 2 3 3 2 2 2 1 1 1 1 2 2 2 3 3 2 4 3 2 4 5 6 3 1 2 2 2 2 3 3 3 4 4 4 4 4 4 4 4
3 3 3 3 3 3 3 3 3 2 2 2 2 2 2 2 2 2 2 5 6 6 3 4 6 6 6 2 2 2 2 2 3 3 3 4 4 4 4 4 4 4 4 5
3 3 3 3 3 2 2 2 3 2 2 2 2 3 2 2 2 3 3 3 5 6 3 4 6 7 4 2 2 2 2 3 3 3 3 3 4 4 4 4 4 4 4 4
3 2 2 2 1 1 1 1 2 2 2 2 3 3 3 2 3 3 3 3 4 5 4 3 3 4 3 2 2 3 3 3 4 3 4 4 4 4 4 4 5 4 4 4
3 2 2 3 3 2 2 2 2 2 2 2 3 3 3 3 3 3 4 3 3 3 3 3 3 3 3 3 3 3 3 3 3 3 4 4 4 4 4 4 4 4 4 4
Wind_Direction
239 214 175 203 210 198 205 205 208 236 241 258 258 252 265 272 281 289 289 290 281 278 285 294 299 298 290 284 278 269 257 260 261 268 283 280 313 324 321 356 166 176 157 158
262 227 218 236 228 215 223 225 234 256 264 253 255 249 272 274 278 283 278 274 277 282 292 296 297 301 308 309 286 259 239 287 297 336 355 358 348 354 358 21 48 120 126 141
227 236 347 254 224 204 209 212 205 229 244 250 255 247 247 254 259 264 275 281 280 279 279 275 279 284 275 268 300 46 22 1 9 18 8 6 11 29 25 14 30 56 67 76
168 147 224 242 209 197 212 229 219 233 247 233 233 241 239 231 234 254 271 282 287 287 293 298 298 306 351 58 52 39 29 19 16 26 17 12 30 26 11 22 38 43 37 33
169 209 264 280 231 184 199 246 227 230 246 249 242 309 279 249 237 238 251 264 270 276 287 309 348 8 46 51 47 35 22 15 8 17 20 15 24 20 8 18 18 15 15 21
175 192 229 245 234 180 142 263 237 214 233 233 159 217 261 262 257 258 268 275 306 341 15 14 0 42 67 44 44 25 358 357 2 14 41 20 2 359 0 10 356 358 353 342
202 219 254 258 210 127 174 244 248 209 216 201 194 214 239 239 237 225 233 282 51 56 40 358 8 62 61 36 9 347 7 18 15 14 25 17 6 360 358 1 1 357 343 336
187 211 247 271 128 177 223 265 266 218 206 200 215 225 208 206 210 185 33 29 57 68 18 3 42 76 59 6 341 13 31 29 17 11 12 15 17 358 357 6 6 349 342 334
203 220 270 201 225 252 248 236 273 342 273 180 190 210 208 211 202 213 178 70 50 70 13 9 41 84 72 331 3 31 34 22 10 8 8 7 9 357 353 354 349 326 321 320
252 265 280 276 285 316 326 281 305 25 9 154 179 190 196 174 145 353 322 327 47 66 25 354 12 30 14 349 26 44 25 5 1 2 358 356 354 352 340 319 312 309 307 304
252 273 294 276 248 265 312 335 346 359 37 137 144 155 181 186 218 252 319 346 50 86 333 319 359 14 4 10 34 30 9 353 348 348 342 341 341 334 316 300 286 289 285 278
234 234 233 261 264 248 222 262 276 314 349 351 164 197 192 204 225 204 303 29 35 21 349 334 357 359 353 360 21 26 355 346 337 335 333 334 331 331 330 318 315 308 307 296
241 248 246 266 271 265 242 242 256 257 209 269 291 199 185 266 302 19 50 52 32 327 328 344 4 348 338 342 351 343 317 320 322 328 328 326 323 318 319 328 329 323 317 312
268 262 270 273 272 275 258 242 194 119 11 87 303 357 94 68 43 58 28 327 340 1 2 7 2 331 327 344 350 339 329 320 323 316 313 311 310 307 306 311 320 324 320 317
268 242 228 248 266 279 293 114 100 42 7 9 35 73 79 87 60 323 339 356 14 24 16 10 349 326 334 341 337 329 328 323 314 309 310 309 312 315 314 311 311 313 318 318
278 295 166 193 224 252 293 143 203 246 247 322 22 14 357 100 51 360 353 12 22 348 331 331 315 312 325 327 324 323 316 315 320 320 317 320 321 320 317 314 313 312 311 314
162 213 206 225 245 258 249 237 220 215 204 194 211 190 96 76 47 0 339 337 313 289 308 302 297 312 324 323 310 303 308 311 317 320 317 314 313 313 311 310 307 305 306 314
212 208 198 190 196 219 291 290 192 161 189 211 162 130 130 144 205 292 313 328 346 352 334 307 307 320 323 317 305 295 296 299 305 306 308 310 308 307 307 307 307 303 306 311
61 127 137 116 135 129 108 316 4 49 57 112 113 124 193 221 246 285 321 344 338 319 313 314 325 334 323 313 315 295 293 296 303 305 305 305 311 312 309 306 304 303 301 304
42 67 80 66 51 70 80 31 54 58 48 86 98 75 27 345 333 330 340 312 290 280 289 308 317 313 307 301 313 296 287 289 293 300 305 301 300 303 303 302 302 302 301 299
55 73 79 77 60 50 56 64 75 57 27 46 78 73 328 331 336 325 313 307 311 312 311 318 319 305 301 300 311 297 286 287 290 289 291 293 295 298 300 301 301 302 302 300
75 88 85 82 78 51 28 40 61 60 44 37 31 25 11 344 335 329 303 279 296 315 321 304 294 301 309 315 302 288 284 284 286 286 285 287 289 292 296 300 300 300 300 299
81 81 74 72 73 56 33 33 38 47 41 19 2 351 330 306 301 298 304 306 308 314 316 296 303 315 321 325 308 292 288 287 285 283 284 285 286 286 288 291 293 295 297 298
62 59 59 59 64 61 39 14 16 21 16 355 341 327 315 314 315 301 282 301 314 315 308 305 316 320 325 321 303 293 289 286 283 282 283 284 284 284 286 288 292 295 297 299
59 60 57 56 52 41 27 13 15 14 11 2 350 342 332 311 292 298 303 305 314 320 315 317 321 322 322 305 298 290 284 277 279 282 281 284 285 286 287 289 291 293 295 295
50 46 37 32 32 25 8 7 6 354 353 350 344 342 339 331 320 311 309 310 310 318 318 311 308 312 304 294 288 283 279 285 291 290 285 287 286 285 286 288 290 289 289 290
45 44 41 33 23 17 8 4 359 344 338 332 325 324 326 327 324 319 314 312 312 312 308 305 302 296 290 287 285 283 280 279 279 279 279 280 281 283 285 286 286 286 286 288